Time,TemperatureF,DewpointF,PressureIn,WindDirection,WindDirectionDegrees,WindSpeedMPH,WindSpeedGustMPH,Humidity,HourlyPrecipIn,Conditions,Clouds,dailyrainin,SoftwareType,DateUTC
2013-04-15 00:00:00,63.0,38.3,30.00,East,101,4.0,11.0,40,0.00,,,0.00,meteohub,2013-04-15 04:00:00,
2013-04-15 00:02:00,63.0,37.6,30.00,SW,218,6.0,11.0,39,0.00,,,0.00,meteohub,2013-04-15 04:02:00,
2013-04-15 00:03:00,63.0,38.3,30.00,East,94,2.0,11.0,40,0.00,,,0.00,meteohub,2013-04-15 04:03:00,
2013-04-15 00:08:00,63.0,38.3,30.00,East,88,3.0,11.0,40,0.00,,,0.00,meteohub,2013-04-15 04:08:00,
2013-04-15 00:13:00,63.1,38.5,30.00,East,101,6.0,12.0,40,0.00,,,0.00,meteohub,2013-04-15 04:13:00,
2013-04-15 00:18:00,63.3,37.9,29.99,East,94,10.0,14.0,39,0.00,,,0.00,meteohub,2013-04-15 04:18:00,
2013-04-15 00:23:00,63.5,38.1,30.00,SSE,160,6.0,15.0,39,0.00,,,0.00,meteohub,2013-04-15 04:23:00,
2013-04-15 00:28:00,63.5,38.1,30.00,East,96,10.0,15.0,39,0.00,,,0.00,meteohub,2013-04-15 04:28:00,
2013-04-15 00:33:00,63.3,38.7,30.00,SE,131,6.0,22.0,40,0.00,,,0.00,meteohub,2013-04-15 04:33:00,
2013-04-15 00:39:00,63.3,38.7,30.00,ESE,112,4.0,22.0,40,0.00,,,0.00,meteohub,2013-04-15 04:39:00,
2013-04-15 00:44:00,63.1,38.5,30.01,ENE,70,5.0,20.0,40,0.00,,,0.00,meteohub,2013-04-15 04:44:00,
2013-04-15 00:50:00,63.1,39.0,30.01,SE,134,6.0,20.0,41,0.00,,,0.00,meteohub,2013-04-15 04:50:00,
2013-04-15 00:55:00,63.0,38.8,30.01,East,98,8.0,20.0,41,0.00,,,0.00,meteohub,2013-04-15 04:55:00,
2013-04-15 01:00:00,62.8,39.4,30.01,ESE,113,2.0,18.0,42,0.00,,,0.00,meteohub,2013-04-15 05:00:00,
2013-04-15 01:05:00,62.8,38.7,30.01,South,172,6.0,12.0,41,0.00,,,0.00,meteohub,2013-04-15 05:05:00,
2013-04-15 01:10:00,62.8,39.4,30.01,ESE,106,4.0,10.0,42,0.00,,,0.00,meteohub,2013-04-15 05:10:00,
2013-04-15 01:15:00,62.8,39.4,30.02,ESE,107,10.0,11.0,42,0.00,,,0.00,meteohub,2013-04-15 05:15:00,
2013-04-15 01:20:00,62.8,39.4,30.02,ENE,74,7.0,14.0,42,0.00,,,0.00,meteohub,2013-04-15 05:20:00,
2013-04-15 01:26:00,62.8,39.4,30.02,East,88,6.0,14.0,42,0.00,,,0.00,meteohub,2013-04-15 05:26:00,
2013-04-15 01:31:00,62.8,39.4,30.01,SE,143,2.0,16.0,42,0.00,,,0.00,meteohub,2013-04-15 05:31:00,
2013-04-15 01:37:00,62.8,39.4,30.01,ESE,103,5.0,16.0,42,0.00,,,0.00,meteohub,2013-04-15 05:37:00,
2013-04-15 01:43:00,62.6,39.2,30.01,SE,138,8.0,13.0,42,0.00,,,0.00,meteohub,2013-04-15 05:43:00,
2013-04-15 01:50:00,62.4,39.6,30.01,ESE,104,2.0,13.0,43,0.00,,,0.00,meteohub,2013-04-15 05:50:00,
2013-04-15 01:55:00,62.4,39.6,30.01,SSE,158,0.0,15.0,43,0.00,,,0.00,meteohub,2013-04-15 05:55:00,
2013-04-15 02:00:00,62.2,39.4,30.01,SE,136,1.0,15.0,43,0.00,,,0.00,meteohub,2013-04-15 06:00:00,
2013-04-15 02:06:00,62.2,39.4,30.01,SE,138,1.0,13.0,43,0.00,,,0.00,meteohub,2013-04-15 06:06:00,
2013-04-15 02:11:00,62.2,39.4,30.00,South,190,1.0,9.0,43,0.00,,,0.00,meteohub,2013-04-15 06:11:00,
2013-04-15 02:16:00,62.4,39.6,30.00,SSW,204,1.0,9.0,43,0.00,,,0.00,meteohub,2013-04-15 06:16:00,
2013-04-15 02:22:00,62.4,39.6,30.00,ESE,116,4.0,12.0,43,0.00,,,0.00,meteohub,2013-04-15 06:22:00,
2013-04-15 02:27:00,62.6,39.7,30.00,SSE,155,4.0,15.0,43,0.00,,,0.00,meteohub,2013-04-15 06:27:00,
2013-04-15 02:32:00,62.4,39.6,30.00,ESE,122,3.0,15.0,43,0.00,,,0.00,meteohub,2013-04-15 06:32:00,
2013-04-15 02:37:00,62.4,39.6,30.00,SSE,167,6.0,15.0,43,0.00,,,0.00,meteohub,2013-04-15 06:37:00,
2013-04-15 02:42:00,62.2,39.4,30.00,SW,232,1.0,14.0,43,0.00,,,0.00,meteohub,2013-04-15 06:42:00,
2013-04-15 02:48:00,62.4,39.6,29.99,East,90,6.0,12.0,43,0.00,,,0.00,meteohub,2013-04-15 06:48:00,
2013-04-15 02:53:00,62.8,39.9,29.99,SE,135,4.0,12.0,43,0.00,,,0.00,meteohub,2013-04-15 06:53:00,
2013-04-15 02:59:00,63.0,39.6,29.99,SE,136,3.0,12.0,42,0.00,,,0.00,meteohub,2013-04-15 06:59:00,
2013-04-15 03:04:00,63.0,39.6,29.99,ESE,109,3.0,14.0,42,0.00,,,0.00,meteohub,2013-04-15 07:04:00,
2013-04-15 03:41:00,61.9,39.7,30.00,ESE,121,5.0,11.0,44,0.00,,,0.00,meteohub,2013-04-15 07:41:00,
2013-04-15 03:45:00,61.7,40.1,29.99,SE,131,1.0,12.0,45,0.00,,,0.00,meteohub,2013-04-15 07:45:00,
2013-04-15 03:48:00,61.5,39.4,29.99,ESE,121,6.0,14.0,44,0.00,,,0.00,meteohub,2013-04-15 07:48:00,
2013-04-15 03:49:00,61.5,39.4,29.99,ESE,123,5.0,14.0,44,0.00,,,0.00,meteohub,2013-04-15 07:49:00,
2013-04-15 03:50:00,61.5,39.4,29.99,SE,131,3.0,14.0,44,0.00,,,0.00,meteohub,2013-04-15 07:50:00,
2013-04-15 03:55:00,61.5,39.9,30.00,South,190,0.0,12.0,45,0.00,,,0.00,meteohub,2013-04-15 07:55:00,
2013-04-15 04:00:00,61.3,39.7,30.00,SW,219,2.0,12.0,45,0.00,,,0.00,meteohub,2013-04-15 08:00:00,
2013-04-15 04:07:00,61.3,39.7,30.01,East,92,5.0,11.0,45,0.00,,,0.00,meteohub,2013-04-15 08:07:00,
2013-04-15 04:12:00,61.3,39.7,30.00,SSE,150,4.0,11.0,45,0.00,,,0.00,meteohub,2013-04-15 08:12:00,
2013-04-15 04:17:00,61.2,39.7,30.01,SE,124,2.0,11.0,45,0.00,,,0.00,meteohub,2013-04-15 08:17:00,
2013-04-15 04:23:00,61.2,40.3,30.01,ESE,107,6.0,10.0,46,0.00,,,0.00,meteohub,2013-04-15 08:23:00,
2013-04-15 04:29:00,61.3,40.5,30.01,ESE,120,5.0,10.0,46,0.00,,,0.00,meteohub,2013-04-15 08:29:00,
2013-04-15 04:36:00,61.2,40.3,30.01,SE,135,4.0,13.0,46,0.00,,,0.00,meteohub,2013-04-15 08:36:00,
2013-04-15 04:37:00,61.2,40.3,30.01,SE,132,1.0,13.0,46,0.00,,,0.00,meteohub,2013-04-15 08:37:00,
2013-04-15 04:40:00,61.2,39.7,30.02,South,191,3.0,13.0,45,0.00,,,0.00,meteohub,2013-04-15 08:40:00,
2013-04-15 04:41:00,61.2,40.3,30.02,ESE,114,5.0,13.0,46,0.00,,,0.00,meteohub,2013-04-15 08:41:00,
2013-04-15 04:43:00,61.2,40.3,30.02,SE,135,5.0,13.0,46,0.00,,,0.00,meteohub,2013-04-15 08:43:00,
2013-04-15 04:44:00,61.2,40.3,30.02,NE,44,1.0,13.0,46,0.00,,,0.00,meteohub,2013-04-15 08:44:00,
2013-04-15 04:50:00,61.2,40.3,30.02,South,179,0.0,14.0,46,0.00,,,0.00,meteohub,2013-04-15 08:50:00,
2013-04-15 04:55:00,61.0,40.1,30.03,West,281,1.0,14.0,46,0.00,,,0.00,meteohub,2013-04-15 08:55:00,
2013-04-15 05:00:00,60.6,39.7,30.03,SSW,195,0.0,14.0,46,0.00,,,0.00,meteohub,2013-04-15 09:00:00,
2013-04-15 05:05:00,60.6,40.3,30.04,ENE,63,0.0,9.0,47,0.00,,,0.00,meteohub,2013-04-15 09:05:00,
2013-04-15 05:11:00,60.3,39.9,30.03,WSW,252,1.0,5.0,47,0.00,,,0.00,meteohub,2013-04-15 09:11:00,
2013-04-15 05:16:00,60.3,40.5,30.04,ENE,70,5.0,9.0,48,0.00,,,0.00,meteohub,2013-04-15 09:16:00,
2013-04-15 05:22:00,60.3,39.9,30.04,East,93,3.0,9.0,47,0.00,,,0.00,meteohub,2013-04-15 09:22:00,
2013-04-15 05:27:00,60.4,40.1,30.04,East,101,3.0,11.0,47,0.00,,,0.00,meteohub,2013-04-15 09:27:00,
2013-04-15 05:32:00,60.4,40.1,30.04,ESE,114,2.0,11.0,47,0.00,,,0.00,meteohub,2013-04-15 09:32:00,
2013-04-15 05:37:00,60.4,40.1,30.05,ENE,78,5.0,12.0,47,0.00,,,0.00,meteohub,2013-04-15 09:37:00,
2013-04-15 05:42:00,60.3,40.5,30.05,ESE,111,3.0,12.0,48,0.00,,,0.00,meteohub,2013-04-15 09:42:00,
2013-04-15 05:47:00,60.1,40.3,30.05,ESE,121,3.0,12.0,48,0.00,,,0.00,meteohub,2013-04-15 09:47:00,
2013-04-15 05:52:00,60.1,40.8,30.05,ESE,115,4.0,12.0,49,0.00,,,0.00,meteohub,2013-04-15 09:52:00,
2013-04-15 05:57:00,59.9,40.6,30.06,East,84,4.0,10.0,49,0.00,,,0.00,meteohub,2013-04-15 09:57:00,
2013-04-15 06:02:00,59.9,40.6,30.06,ESE,122,1.0,10.0,49,0.00,,,0.00,meteohub,2013-04-15 10:02:00,
2013-04-15 06:08:00,59.7,40.5,30.06,NE,36,1.0,10.0,49,0.00,,,0.00,meteohub,2013-04-15 10:08:00,
2013-04-15 06:13:00,59.5,40.3,30.06,SE,124,1.0,10.0,49,0.00,,,0.00,meteohub,2013-04-15 10:13:00,
2013-04-15 06:18:00,59.4,40.6,30.06,East,80,6.0,7.0,50,0.00,,,0.00,meteohub,2013-04-15 10:18:00,
2013-04-15 06:23:00,59.2,40.6,30.06,East,86,1.0,8.0,50,0.00,,,0.00,meteohub,2013-04-15 10:23:00,
2013-04-15 06:29:00,59.2,40.6,30.07,ESE,103,2.0,8.0,50,0.00,,,0.00,meteohub,2013-04-15 10:29:00,
2013-04-15 06:34:00,59.0,40.5,30.07,East,80,1.0,8.0,50,0.00,,,0.00,meteohub,2013-04-15 10:34:00,
2013-04-15 06:39:00,58.8,40.8,30.07,ESE,108,3.0,8.0,51,0.00,,,0.00,meteohub,2013-04-15 10:39:00,
2013-04-15 06:45:00,58.6,41.0,30.08,East,90,2.0,8.0,52,0.00,,,0.00,meteohub,2013-04-15 10:45:00,
2013-04-15 06:50:00,58.6,41.0,30.08,East,86,5.0,6.0,52,0.00,,,0.00,meteohub,2013-04-15 10:50:00,
2013-04-15 06:55:00,58.5,40.8,30.08,East,101,3.0,8.0,52,0.00,,,0.00,meteohub,2013-04-15 10:55:00,
2013-04-15 07:02:00,58.3,41.2,30.09,ESE,108,0.0,8.0,53,0.00,,,0.00,meteohub,2013-04-15 11:02:00,
2013-04-15 07:07:00,58.3,41.2,30.09,ESE,113,0.0,4.0,53,0.00,,,0.00,meteohub,2013-04-15 11:07:00,
2013-04-15 07:12:00,58.1,41.0,30.09,SE,138,0.0,6.0,53,0.00,,,0.00,meteohub,2013-04-15 11:12:00,
2013-04-15 07:18:00,57.9,41.4,30.09,ESE,123,0.0,6.0,54,0.00,,,0.00,meteohub,2013-04-15 11:18:00,
2013-04-15 07:24:00,57.9,41.4,30.09,SE,133,0.0,2.0,54,0.00,,,0.00,meteohub,2013-04-15 11:24:00,
2013-04-15 07:29:00,57.7,42.1,30.09,SE,127,3.0,6.0,56,0.00,,,0.00,meteohub,2013-04-15 11:29:00,
2013-04-15 07:35:00,57.9,41.9,30.09,ESE,111,1.0,6.0,55,0.00,,,0.00,meteohub,2013-04-15 11:35:00,
2013-04-15 07:40:00,58.1,42.1,30.09,ESE,103,5.0,6.0,55,0.00,,,0.00,meteohub,2013-04-15 11:40:00,
2013-04-15 07:45:00,58.3,42.6,30.09,ENE,71,0.0,6.0,56,0.00,,,0.00,meteohub,2013-04-15 11:45:00,
2013-04-15 07:51:00,58.3,42.3,30.09,East,100,2.0,6.0,55,0.00,,,0.00,meteohub,2013-04-15 11:51:00,
2013-04-15 07:56:00,58.5,42.8,30.09,SW,222,1.0,5.0,56,0.00,,,0.00,meteohub,2013-04-15 11:56:00,
2013-04-15 08:02:00,58.6,43.5,30.08,SSE,162,0.0,5.0,57,0.00,,,0.00,meteohub,2013-04-15 12:02:00,
2013-04-15 08:07:00,59.0,43.7,30.08,East,91,4.0,5.0,57,0.00,,,0.00,meteohub,2013-04-15 12:07:00,
2013-04-15 08:12:00,59.2,44.8,30.08,SSE,148,3.0,7.0,59,0.00,,,0.00,meteohub,2013-04-15 12:12:00,
2013-04-15 08:18:00,59.4,45.0,30.08,SE,133,1.0,7.0,59,0.00,,,0.00,meteohub,2013-04-15 12:18:00,
2013-04-15 08:23:00,59.5,45.7,30.09,East,96,4.0,7.0,60,0.00,,,0.00,meteohub,2013-04-15 12:23:00,
2013-04-15 08:28:00,59.9,46.0,30.09,South,190,1.0,7.0,60,0.00,,,0.00,meteohub,2013-04-15 12:28:00,
2013-04-15 08:33:00,60.1,46.2,30.09,West,274,1.0,6.0,60,0.00,,,0.00,meteohub,2013-04-15 12:33:00,
2013-04-15 08:39:00,60.1,46.2,30.09,WSW,255,4.0,5.0,60,0.00,,,0.00,meteohub,2013-04-15 12:39:00,
2013-04-15 08:44:00,59.7,45.9,30.09,SW,235,6.0,9.0,60,0.00,,,0.00,meteohub,2013-04-15 12:44:00,
2013-04-15 08:49:00,59.5,45.7,30.09,West,267,1.0,10.0,60,0.00,,,0.00,meteohub,2013-04-15 12:49:00,
2013-04-15 08:54:00,59.7,45.3,30.08,SE,133,0.0,10.0,59,0.00,,,0.00,meteohub,2013-04-15 12:54:00,
2013-04-15 09:00:00,59.9,45.5,30.08,West,277,1.0,9.0,59,0.00,,,0.00,meteohub,2013-04-15 13:00:00,
2013-04-15 09:07:00,60.1,45.7,30.07,SE,127,1.0,2.0,59,0.00,,,0.00,meteohub,2013-04-15 13:07:00,
2013-04-15 09:13:00,60.3,45.5,30.07,WSW,249,3.0,7.0,58,0.00,,,0.00,meteohub,2013-04-15 13:13:00,
2013-04-15 09:18:00,60.6,45.3,30.07,SSE,153,6.0,11.0,57,0.00,,,0.00,meteohub,2013-04-15 13:18:00,
2013-04-15 09:26:00,61.0,45.1,30.07,ENE,70,5.0,11.0,56,0.00,,,0.00,meteohub,2013-04-15 13:26:00,
2013-04-15 09:32:00,61.7,45.0,30.07,East,95,7.0,9.0,54,0.00,,,0.00,meteohub,2013-04-15 13:32:00,
2013-04-15 09:37:00,61.7,45.0,30.07,ESE,103,4.0,10.0,54,0.00,,,0.00,meteohub,2013-04-15 13:37:00,
2013-04-15 09:42:00,61.9,45.1,30.07,SE,129,5.0,10.0,54,0.00,,,0.00,meteohub,2013-04-15 13:42:00,
2013-04-15 09:47:00,61.9,45.5,30.06,ENE,74,0.0,11.0,55,0.00,,,0.00,meteohub,2013-04-15 13:47:00,
2013-04-15 09:52:00,62.1,45.1,30.07,West,259,3.0,11.0,54,0.00,,,0.00,meteohub,2013-04-15 13:52:00,
2013-04-15 09:57:00,62.1,45.1,30.07,ENE,70,4.0,11.0,54,0.00,,,0.00,meteohub,2013-04-15 13:57:00,
2013-04-15 10:02:00,61.9,45.1,30.07,West,280,4.0,10.0,54,0.00,,,0.00,meteohub,2013-04-15 14:02:00,
2013-04-15 10:09:00,61.7,45.0,30.07,East,101,5.0,10.0,54,0.00,,,0.00,meteohub,2013-04-15 14:09:00,
2013-04-15 10:14:00,61.7,45.3,30.08,SE,127,2.0,10.0,55,0.00,,,0.00,meteohub,2013-04-15 14:14:00,
2013-04-15 10:19:00,61.7,45.3,30.09,East,101,5.0,8.0,55,0.00,,,0.00,meteohub,2013-04-15 14:19:00,
2013-04-15 10:25:00,61.7,45.3,30.08,SSW,208,2.0,8.0,55,0.00,,,0.00,meteohub,2013-04-15 14:25:00,
2013-04-15 10:30:00,61.9,45.5,30.09,SE,134,2.0,13.0,55,0.00,,,0.00,meteohub,2013-04-15 14:30:00,
2013-04-15 10:35:00,61.7,45.3,30.09,SW,223,2.0,13.0,55,0.00,,,0.00,meteohub,2013-04-15 14:35:00,
2013-04-15 10:40:00,61.5,45.1,30.09,SE,146,0.0,9.0,55,0.00,,,0.00,meteohub,2013-04-15 14:40:00,
2013-04-15 10:46:00,61.5,45.1,30.09,East,94,2.0,9.0,55,0.00,,,0.00,meteohub,2013-04-15 14:46:00,
2013-04-15 10:51:00,61.5,45.7,30.09,ESE,117,5.0,7.0,56,0.00,,,0.00,meteohub,2013-04-15 14:51:00,
2013-04-15 10:56:00,61.3,45.0,30.09,East,96,13.0,13.0,55,0.00,,,0.00,meteohub,2013-04-15 14:56:00,
2013-04-15 11:02:00,61.0,47.5,30.09,SSE,153,0.0,13.0,61,0.00,,,0.00,meteohub,2013-04-15 15:02:00,
2013-04-15 11:07:00,60.6,47.5,30.10,SSE,167,0.0,13.0,62,0.00,,,0.00,meteohub,2013-04-15 15:07:00,
2013-04-15 11:12:00,60.4,47.8,30.09,NNW,335,1.0,9.0,63,0.00,,,0.00,meteohub,2013-04-15 15:12:00,
2013-04-15 11:17:00,60.1,47.8,30.09,East,100,2.0,9.0,64,0.00,,,0.00,meteohub,2013-04-15 15:17:00,
2013-04-15 11:22:00,60.1,48.2,30.09,WSW,243,0.0,7.0,65,0.00,,,0.00,meteohub,2013-04-15 15:22:00,
2013-04-15 11:27:00,60.4,48.6,30.09,WSW,255,2.0,7.0,65,0.00,,,0.00,meteohub,2013-04-15 15:27:00,
2013-04-15 11:33:00,60.6,48.7,30.09,SW,228,2.0,9.0,65,0.00,,,0.00,meteohub,2013-04-15 15:33:00,
2013-04-15 11:38:00,60.8,47.7,30.09,West,273,5.0,9.0,62,0.00,,,0.00,meteohub,2013-04-15 15:38:00,
2013-04-15 11:43:00,60.6,48.4,30.10,South,176,3.0,9.0,64,0.00,,,0.00,meteohub,2013-04-15 15:43:00,
2013-04-15 11:49:00,60.6,47.5,30.09,SE,142,0.0,7.0,62,0.00,,,0.00,meteohub,2013-04-15 15:49:00,
2013-04-15 11:54:00,61.2,48.0,30.10,East,98,2.0,7.0,62,0.00,,,0.00,meteohub,2013-04-15 15:54:00,
2013-04-15 11:59:00,61.2,47.7,30.10,SSE,153,1.0,5.0,61,0.00,,,0.00,meteohub,2013-04-15 15:59:00,
2013-04-15 12:04:00,61.2,48.0,30.10,SE,134,2.0,4.0,62,0.00,,,0.00,meteohub,2013-04-15 16:04:00,
2013-04-15 12:10:00,61.2,47.7,30.10,SE,141,1.0,4.0,61,0.00,,,0.00,meteohub,2013-04-15 16:10:00,
2013-04-15 12:15:00,61.2,48.0,30.10,ESE,108,2.0,3.0,62,0.00,,,0.00,meteohub,2013-04-15 16:15:00,
2013-04-15 12:23:00,61.2,47.1,30.10,ENE,74,10.0,10.0,60,0.00,,,0.00,meteohub,2013-04-15 16:23:00,
2013-04-15 12:28:00,61.3,46.9,30.10,ESE,117,6.0,12.0,59,0.00,,,0.00,meteohub,2013-04-15 16:28:00,
2013-04-15 12:34:00,61.3,46.9,30.10,SE,133,1.0,12.0,59,0.00,,,0.00,meteohub,2013-04-15 16:34:00,
2013-04-15 12:39:00,61.3,46.9,30.10,SE,131,4.0,9.0,59,0.00,,,0.00,meteohub,2013-04-15 16:39:00,
2013-04-15 12:44:00,61.2,47.7,30.10,SW,226,0.0,19.0,61,0.00,,,0.00,meteohub,2013-04-15 16:44:00,
2013-04-15 12:50:00,61.3,47.3,30.10,West,281,1.0,19.0,60,0.00,,,0.00,meteohub,2013-04-15 16:50:00,
2013-04-15 12:55:00,61.3,47.8,30.10,SSE,148,0.0,13.0,61,0.00,,,0.00,meteohub,2013-04-15 16:55:00,
2013-04-15 13:01:00,61.5,48.0,30.10,West,268,0.0,13.0,61,0.00,,,0.00,meteohub,2013-04-15 17:01:00,
2013-04-15 13:06:00,61.7,47.7,30.10,ESE,105,3.0,13.0,60,0.00,,,0.00,meteohub,2013-04-15 17:06:00,
2013-04-15 13:11:00,61.9,47.8,30.10,SSE,160,1.0,4.0,60,0.00,,,0.00,meteohub,2013-04-15 17:11:00,
2013-04-15 13:17:00,62.1,47.5,30.10,ENE,78,6.0,7.0,59,0.00,,,0.00,meteohub,2013-04-15 17:17:00,
2013-04-15 13:22:00,61.9,47.5,30.10,SSW,203,2.0,9.0,59,0.00,,,0.00,meteohub,2013-04-15 17:22:00,
2013-04-15 13:25:00,61.9,47.8,30.10,West,281,0.0,13.0,60,0.00,,,0.00,meteohub,2013-04-15 17:25:00,
2013-04-15 13:26:00,61.9,47.5,30.10,West,278,3.0,13.0,59,0.00,,,0.00,meteohub,2013-04-15 17:26:00,
2013-04-15 13:31:00,61.9,47.8,30.10,NE,54,1.0,13.0,60,0.00,,,0.00,meteohub,2013-04-15 17:31:00,
2013-04-15 13:36:00,61.9,47.8,30.11,SSE,160,2.0,13.0,60,0.00,,,0.00,meteohub,2013-04-15 17:36:00,
2013-04-15 13:42:00,62.1,47.5,30.10,ESE,117,3.0,7.0,59,0.00,,,0.00,meteohub,2013-04-15 17:42:00,
2013-04-15 13:47:00,62.2,47.7,30.10,ESE,108,3.0,7.0,59,0.00,,,0.00,meteohub,2013-04-15 17:47:00,
2013-04-15 13:52:00,62.4,48.4,30.10,East,98,3.0,5.0,60,0.00,,,0.00,meteohub,2013-04-15 17:52:00,
2013-04-15 13:57:00,62.8,48.7,30.09,ESE,105,7.0,7.0,60,0.00,,,0.00,meteohub,2013-04-15 17:57:00,
2013-04-15 14:02:00,62.8,49.1,30.09,ESE,116,4.0,18.0,61,0.00,,,0.00,meteohub,2013-04-15 18:02:00,
2013-04-15 14:07:00,62.8,48.7,30.09,SSW,200,1.0,18.0,60,0.00,,,0.00,meteohub,2013-04-15 18:07:00,
2013-04-15 14:12:00,62.2,49.1,30.09,ESE,120,4.0,18.0,62,0.00,,,0.00,meteohub,2013-04-15 18:12:00,
2013-04-15 14:18:00,62.2,49.1,30.10,SW,218,0.0,18.0,62,0.00,,,0.00,meteohub,2013-04-15 18:18:00,
2013-04-15 14:23:00,62.2,48.6,30.10,SSE,152,4.0,12.0,61,0.00,,,0.00,meteohub,2013-04-15 18:23:00,
2013-04-15 14:29:00,62.4,48.7,30.09,SSW,205,6.0,12.0,61,0.00,,,0.00,meteohub,2013-04-15 18:29:00,
2013-04-15 14:31:00,62.8,48.2,30.09,ESE,108,12.0,13.0,59,0.00,,,0.00,meteohub,2013-04-15 18:31:00,
2013-04-15 14:32:00,62.8,48.7,30.09,SE,135,4.0,13.0,60,0.00,,,0.00,meteohub,2013-04-15 18:32:00,
2013-04-15 14:34:00,63.0,48.0,30.09,East,87,10.0,13.0,58,0.00,,,0.00,meteohub,2013-04-15 18:34:00,
2013-04-15 14:39:00,63.1,48.2,30.09,WNW,287,4.0,13.0,58,0.00,,,0.00,meteohub,2013-04-15 18:39:00,
2013-04-15 14:45:00,63.7,48.2,30.09,SSE,167,3.0,14.0,57,0.00,,,0.00,meteohub,2013-04-15 18:45:00,
2013-04-15 14:50:00,63.9,48.4,30.09,SW,233,6.0,14.0,57,0.00,,,0.00,meteohub,2013-04-15 18:50:00,
2013-04-15 14:55:00,64.0,48.6,30.09,West,272,2.0,14.0,57,0.00,,,0.00,meteohub,2013-04-15 18:55:00,
2013-04-15 15:00:00,64.0,48.0,30.09,WSW,255,5.0,14.0,56,0.00,,,0.00,meteohub,2013-04-15 19:00:00,
2013-04-15 15:06:00,64.0,48.0,30.10,ENE,77,3.0,14.0,56,0.00,,,0.00,meteohub,2013-04-15 19:06:00,
2013-04-15 15:11:00,64.0,48.0,30.09,WSW,256,2.0,12.0,56,0.00,,,0.00,meteohub,2013-04-15 19:11:00,
2013-04-15 15:16:00,64.0,48.0,30.09,South,179,2.0,9.0,56,0.00,,,0.00,meteohub,2013-04-15 19:16:00,
2013-04-15 15:21:00,64.0,48.0,30.09,ESE,115,5.0,9.0,56,0.00,,,0.00,meteohub,2013-04-15 19:21:00,
2013-04-15 15:27:00,64.0,47.5,30.09,SW,222,2.0,14.0,55,0.00,,,0.00,meteohub,2013-04-15 19:27:00,
2013-04-15 15:32:00,64.2,47.7,30.09,WSW,245,3.0,14.0,55,0.00,,,0.00,meteohub,2013-04-15 19:32:00,
2013-04-15 15:37:00,64.4,47.8,30.09,WSW,253,3.0,14.0,55,0.00,,,0.00,meteohub,2013-04-15 19:37:00,
2013-04-15 15:45:00,64.2,47.7,30.09,ESE,114,3.0,9.0,55,0.00,,,0.00,meteohub,2013-04-15 19:45:00,
2013-04-15 15:52:00,63.9,47.8,30.09,SE,134,1.0,7.0,56,0.00,,,0.00,meteohub,2013-04-15 19:52:00,
2013-04-15 15:57:00,63.7,47.3,30.09,SE,130,0.0,7.0,55,0.00,,,0.00,meteohub,2013-04-15 19:57:00,
2013-04-15 15:59:00,63.9,47.3,30.09,East,99,2.0,7.0,55,0.00,,,0.00,meteohub,2013-04-15 19:59:00,
2013-04-15 16:01:00,63.9,47.8,30.09,ESE,115,2.0,7.0,56,0.00,,,0.00,meteohub,2013-04-15 20:01:00,
2013-04-15 16:02:00,63.7,47.3,30.09,ENE,75,1.0,7.0,55,0.00,,,0.00,meteohub,2013-04-15 20:02:00,
2013-04-15 16:03:00,63.7,47.3,30.09,ENE,70,3.0,7.0,55,0.00,,,0.00,meteohub,2013-04-15 20:03:00,
2013-04-15 16:04:00,63.7,48.2,30.09,SE,130,2.0,7.0,57,0.00,,,0.00,meteohub,2013-04-15 20:04:00,
2013-04-15 16:07:00,63.3,47.8,30.09,SE,135,3.0,7.0,57,0.00,,,0.00,meteohub,2013-04-15 20:07:00,
2013-04-15 16:13:00,63.3,47.8,30.09,ESE,118,4.0,7.0,57,0.00,,,0.00,meteohub,2013-04-15 20:13:00,
2013-04-15 16:18:00,63.5,48.0,30.08,East,98,3.0,11.0,57,0.00,,,0.00,meteohub,2013-04-15 20:18:00,
2013-04-15 16:24:00,64.0,48.0,30.07,ESE,122,1.0,11.0,56,0.00,,,0.00,meteohub,2013-04-15 20:24:00,
2013-04-15 16:29:00,64.9,48.4,30.07,West,262,3.0,11.0,55,0.00,,,0.00,meteohub,2013-04-15 20:29:00,
2013-04-15 16:35:00,65.1,48.6,30.07,East,94,5.0,7.0,55,0.00,,,0.00,meteohub,2013-04-15 20:35:00,
2013-04-15 16:40:00,65.5,48.4,30.06,SSW,204,4.0,9.0,54,0.00,,,0.00,meteohub,2013-04-15 20:40:00,
2013-04-15 16:45:00,66.2,49.6,30.07,ENE,68,4.0,9.0,55,0.00,,,0.00,meteohub,2013-04-15 20:45:00,
2013-04-15 16:51:00,66.7,49.1,30.06,West,268,5.0,8.0,53,0.00,,,0.00,meteohub,2013-04-15 20:51:00,
2013-04-15 16:57:00,66.7,47.5,30.07,East,86,3.0,8.0,50,0.00,,,0.00,meteohub,2013-04-15 20:57:00,
2013-04-15 17:02:00,66.0,47.8,30.07,SE,136,6.0,8.0,52,0.00,,,0.00,meteohub,2013-04-15 21:02:00,
2013-04-15 17:07:00,65.7,47.1,30.06,NE,43,1.0,11.0,51,0.00,,,0.00,meteohub,2013-04-15 21:07:00,
2013-04-15 17:12:00,65.7,48.0,30.07,South,170,2.0,11.0,53,0.00,,,0.00,meteohub,2013-04-15 21:12:00,
2013-04-15 17:17:00,65.8,48.2,30.06,SW,232,2.0,11.0,53,0.00,,,0.00,meteohub,2013-04-15 21:17:00,
2013-04-15 17:22:00,65.8,47.7,30.07,East,94,6.0,7.0,52,0.00,,,0.00,meteohub,2013-04-15 21:22:00,
2013-04-15 17:27:00,65.7,47.5,30.07,South,174,2.0,12.0,52,0.00,,,0.00,meteohub,2013-04-15 21:27:00,
2013-04-15 17:32:00,65.7,47.5,30.07,ENE,77,4.0,12.0,52,0.00,,,0.00,meteohub,2013-04-15 21:32:00,
2013-04-15 17:37:00,65.7,47.5,30.07,SE,124,2.0,12.0,52,0.00,,,0.00,meteohub,2013-04-15 21:37:00,
2013-04-15 17:43:00,65.7,48.0,30.07,SE,144,1.0,14.0,53,0.00,,,0.00,meteohub,2013-04-15 21:43:00,
2013-04-15 17:48:00,65.5,47.5,30.08,ESE,122,3.0,14.0,52,0.00,,,0.00,meteohub,2013-04-15 21:48:00,
2013-04-15 17:53:00,65.5,47.5,30.08,ESE,115,4.0,14.0,52,0.00,,,0.00,meteohub,2013-04-15 21:53:00,
2013-04-15 17:59:00,65.3,47.7,30.08,ESE,103,2.0,12.0,53,0.00,,,0.00,meteohub,2013-04-15 21:59:00,
2013-04-15 18:04:00,65.1,47.5,30.09,ESE,108,0.0,9.0,53,0.00,,,0.00,meteohub,2013-04-15 22:04:00,
2013-04-15 18:09:00,65.1,47.1,30.09,East,94,1.0,9.0,52,0.00,,,0.00,meteohub,2013-04-15 22:09:00,
2013-04-15 18:15:00,65.1,47.1,30.09,SE,131,2.0,9.0,52,0.00,,,0.00,meteohub,2013-04-15 22:15:00,
2013-04-15 18:20:00,65.1,47.1,30.09,East,81,2.0,10.0,52,0.00,,,0.00,meteohub,2013-04-15 22:20:00,
2013-04-15 18:25:00,65.1,47.1,30.09,South,179,2.0,10.0,52,0.00,,,0.00,meteohub,2013-04-15 22:25:00,
2013-04-15 18:31:00,65.1,47.1,30.08,SSE,153,5.0,10.0,52,0.00,,,0.00,meteohub,2013-04-15 22:31:00,
2013-04-15 18:36:00,64.9,46.9,30.09,SSE,150,1.0,6.0,52,0.00,,,0.00,meteohub,2013-04-15 22:36:00,
2013-04-15 18:42:00,64.9,46.9,30.09,SE,127,1.0,6.0,52,0.00,,,0.00,meteohub,2013-04-15 22:42:00,
2013-04-15 18:47:00,64.9,46.9,30.09,South,181,0.0,6.0,52,0.00,,,0.00,meteohub,2013-04-15 22:47:00,
2013-04-15 18:52:00,64.9,47.5,30.08,East,84,5.0,5.0,53,0.00,,,0.00,meteohub,2013-04-15 22:52:00,
2013-04-15 18:57:00,64.9,46.9,30.08,SE,132,1.0,8.0,52,0.00,,,0.00,meteohub,2013-04-15 22:57:00,
2013-04-15 19:02:00,64.9,46.9,30.08,SSW,204,3.0,8.0,52,0.00,,,0.00,meteohub,2013-04-15 23:02:00,
2013-04-15 19:07:00,65.1,47.1,30.08,ESE,117,0.0,8.0,52,0.00,,,0.00,meteohub,2013-04-15 23:07:00,
2013-04-15 19:12:00,65.1,47.1,30.08,ESE,110,3.0,10.0,52,0.00,,,0.00,meteohub,2013-04-15 23:12:00,
2013-04-15 19:17:00,65.1,47.1,30.08,East,81,5.0,10.0,52,0.00,,,0.00,meteohub,2013-04-15 23:17:00,
2013-04-15 19:23:00,65.1,46.6,30.08,SE,129,1.0,10.0,51,0.00,,,0.00,meteohub,2013-04-15 23:23:00,
2013-04-15 19:28:00,65.1,46.6,30.07,West,269,2.0,10.0,51,0.00,,,0.00,meteohub,2013-04-15 23:28:00,
2013-04-15 19:33:00,65.3,46.8,30.07,SE,139,0.0,10.0,51,0.00,,,0.00,meteohub,2013-04-15 23:33:00,
2013-04-15 19:38:00,65.3,46.8,30.07,NE,53,3.0,4.0,51,0.00,,,0.00,meteohub,2013-04-15 23:38:00,
2013-04-15 19:43:00,65.1,46.6,30.07,SE,135,1.0,4.0,51,0.00,,,0.00,meteohub,2013-04-15 23:43:00,
2013-04-15 19:49:00,64.8,46.2,30.07,NW,308,0.0,10.0,51,0.00,,,0.00,meteohub,2013-04-15 23:49:00,
2013-04-15 19:54:00,64.2,46.2,30.07,SSE,150,0.0,10.0,52,0.00,,,0.00,meteohub,2013-04-15 23:54:00,
2013-04-15 20:00:00,63.7,46.2,30.07,East,80,1.0,3.0,53,0.00,,,0.00,meteohub,2013-04-16 00:00:00,
2013-04-15 20:05:00,63.3,46.4,30.07,SE,136,0.0,10.0,54,0.00,,,0.00,meteohub,2013-04-16 00:05:00,
2013-04-15 20:11:00,63.1,46.2,30.07,East,96,1.0,10.0,54,0.00,,,0.00,meteohub,2013-04-16 00:11:00,
2013-04-15 20:16:00,63.0,46.6,30.07,WNW,294,4.0,7.0,55,0.00,,,0.00,meteohub,2013-04-16 00:16:00,
2013-04-15 20:21:00,62.8,46.9,30.07,SE,143,0.0,7.0,56,0.00,,,0.00,meteohub,2013-04-16 00:21:00,
2013-04-15 20:26:00,62.6,46.8,30.08,SE,142,1.0,7.0,56,0.00,,,0.00,meteohub,2013-04-16 00:26:00,
2013-04-15 20:32:00,62.4,46.6,30.08,ESE,109,2.0,7.0,56,0.00,,,0.00,meteohub,2013-04-16 00:32:00,
2013-04-15 20:37:00,62.4,46.6,30.08,East,84,6.0,6.0,56,0.00,,,0.00,meteohub,2013-04-16 00:37:00,
2013-04-15 20:43:00,62.1,46.6,30.09,NNW,348,0.0,6.0,57,0.00,,,0.00,meteohub,2013-04-16 00:43:00,
2013-04-15 20:48:00,61.7,46.8,30.09,East,94,0.0,6.0,58,0.00,,,0.00,meteohub,2013-04-16 00:48:00,
2013-04-15 20:53:00,61.2,46.8,30.10,WSW,243,0.0,6.0,59,0.00,,,0.00,meteohub,2013-04-16 00:53:00,
2013-04-15 20:59:00,60.6,46.6,30.10,WSW,243,0.0,3.0,60,0.00,,,0.00,meteohub,2013-04-16 00:59:00,
2013-04-15 21:04:00,60.1,46.6,30.10,SSE,149,0.0,3.0,61,0.00,,,0.00,meteohub,2013-04-16 01:04:00,
2013-04-15 21:09:00,59.7,46.8,30.10,South,172,0.0,1.0,62,0.00,,,0.00,meteohub,2013-04-16 01:09:00,
2013-04-15 21:14:00,59.9,46.8,30.10,East,79,0.0,3.0,62,0.00,,,0.00,meteohub,2013-04-16 01:14:00,
2013-04-15 21:19:00,59.4,46.8,30.10,East,79,0.0,3.0,63,0.00,,,0.00,meteohub,2013-04-16 01:19:00,
2013-04-15 21:25:00,59.2,46.6,30.10,SSW,206,1.0,3.0,63,0.00,,,0.00,meteohub,2013-04-16 01:25:00,
2013-04-15 21:30:00,59.2,46.6,30.10,East,96,0.0,3.0,63,0.00,,,0.00,meteohub,2013-04-16 01:30:00,
2013-04-15 21:35:00,59.5,46.9,30.10,SE,146,0.0,3.0,63,0.00,,,0.00,meteohub,2013-04-16 01:35:00,
2013-04-15 21:40:00,59.5,46.9,30.10,WNW,298,0.0,3.0,63,0.00,,,0.00,meteohub,2013-04-16 01:40:00,
2013-04-15 21:46:00,59.5,46.9,30.10,NW,308,0.0,4.0,63,0.00,,,0.00,meteohub,2013-04-16 01:46:00,
2013-04-15 21:51:00,59.5,46.9,30.11,ESE,109,3.0,4.0,63,0.00,,,0.00,meteohub,2013-04-16 01:51:00,
2013-04-15 21:56:00,59.2,46.9,30.11,SSE,160,1.0,4.0,64,0.00,,,0.00,meteohub,2013-04-16 01:56:00,
2013-04-15 22:02:00,58.6,46.9,30.11,NW,315,0.0,3.0,65,0.00,,,0.00,meteohub,2013-04-16 02:02:00,
2013-04-15 22:07:00,58.5,46.8,30.11,NNE,22,0.0,3.0,65,0.00,,,0.00,meteohub,2013-04-16 02:07:00,
2013-04-15 22:12:00,58.1,46.8,30.11,WSW,238,0.0,1.0,66,0.00,,,0.00,meteohub,2013-04-16 02:12:00,
2013-04-15 22:17:00,57.7,46.9,30.11,WNW,302,0.0,2.0,67,0.00,,,0.00,meteohub,2013-04-16 02:17:00,
2013-04-15 22:22:00,57.6,46.8,30.11,WSW,238,0.0,3.0,67,0.00,,,0.00,meteohub,2013-04-16 02:22:00,
2013-04-15 22:27:00,57.4,46.9,30.11,SSW,212,0.0,3.0,68,0.00,,,0.00,meteohub,2013-04-16 02:27:00,
2013-04-15 22:32:00,57.0,46.9,30.11,WNW,283,1.0,3.0,69,0.00,,,0.00,meteohub,2013-04-16 02:32:00,
2013-04-15 22:38:00,58.1,47.7,30.11,West,274,3.0,3.0,68,0.00,,,0.00,meteohub,2013-04-16 02:38:00,
2013-04-15 22:43:00,58.8,47.8,30.11,WSW,249,2.0,6.0,67,0.00,,,0.00,meteohub,2013-04-16 02:43:00,
2013-04-15 22:49:00,58.8,47.8,30.11,SSE,165,0.0,8.0,67,0.00,,,0.00,meteohub,2013-04-16 02:49:00,
2013-04-15 22:54:00,58.6,47.7,30.11,West,261,2.0,8.0,67,0.00,,,0.00,meteohub,2013-04-16 02:54:00,
2013-04-15 22:59:00,58.6,47.7,30.10,ENE,66,2.0,9.0,67,0.00,,,0.00,meteohub,2013-04-16 02:59:00,
2013-04-15 23:04:00,58.6,47.7,30.10,WNW,283,3.0,9.0,67,0.00,,,0.00,meteohub,2013-04-16 03:04:00,
2013-04-15 23:09:00,58.8,47.8,30.09,SW,221,1.0,7.0,67,0.00,,,0.00,meteohub,2013-04-16 03:09:00,
2013-04-15 23:14:00,58.5,48.4,30.10,SW,219,3.0,6.0,69,0.00,,,0.00,meteohub,2013-04-16 03:14:00,
2013-04-15 23:20:00,58.6,48.2,30.11,West,275,4.0,6.0,68,0.00,,,0.00,meteohub,2013-04-16 03:20:00,
2013-04-15 23:25:00,58.5,48.0,30.11,WSW,238,0.0,6.0,68,0.00,,,0.00,meteohub,2013-04-16 03:25:00,
2013-04-15 23:31:00,58.1,48.0,30.11,WSW,257,0.0,5.0,69,0.00,,,0.00,meteohub,2013-04-16 03:31:00,
2013-04-15 23:36:00,58.3,48.2,30.11,SSE,147,1.0,5.0,69,0.00,,,0.00,meteohub,2013-04-16 03:36:00,
2013-04-15 23:42:00,58.6,48.2,30.10,East,88,0.0,6.0,68,0.00,,,0.00,meteohub,2013-04-16 03:42:00,
2013-04-15 23:47:00,58.6,48.2,30.10,WSW,243,0.0,6.0,68,0.00,,,0.00,meteohub,2013-04-16 03:47:00,
2013-04-15 23:52:00,58.3,48.6,30.10,ESE,117,0.0,6.0,70,0.00,,,0.00,meteohub,2013-04-16 03:52:00,
2013-04-15 23:57:00,58.5,48.4,30.09,ENE,77,0.0,7.0,69,0.00,,,0.00,meteohub,2013-04-16 03:57:00,